Regional Weather Roundup
Issued by NWS

Home | Current Version | Previous Version | Graphics & Text | Print | Product List | Glossary On
Versions: 1 2 3 4 5 6 7 8 9 10 11 12 13 14 15 16 17 18 19 20 21 22 23 24 25 26 27 28 29 30 31 32 33 34 35 36 37 38 39 40 41 42 43 44 45 46 47 48 49 50
000
ASUS45 KPSR 300500
RWRAZ

ARIZONA HOURLY REGIONAL WEATHER ROUNDUP
NATIONAL WEATHER SERVICE PHOENIX AZ
1000 PM MST MON JUN 29 2015

NOTE: FAIR INDICATES FEW OR NO CLOUDS BELOW 12,000 FEET WITH NO
SIGNIFICANT WEATHER AND/OR OBSTRUCTIONS TO VISIBILITY.

AZZ001>003-036-300600-
NORTHWEST ARIZONA

CITY           SKY/WX    TMP DP  RH WIND       PRES   REMARKS
KINGMAN        MOCLDY    81  54  39 SW5       30.02R
$$

AZZ004>008-015-016-018-300600-
NORTH CENTRAL ARIZONA

CITY           SKY/WX    TMP DP  RH WIND       PRES   REMARKS
GRAND CANYON   CLOUDY    65  56  72 W3        30.32R
WILLIAMS       CLOUDY    61  57  88 S6        30.40R
PRESCOTT       CLOUDY    68  60  75 W12       30.21F THUNDER
FLAGSTAFF      NOT AVBL
PAYSON         CLOUDY    75  54  46 CALM      30.20R
PAGE           CLOUDY    91  46  21 NW9G17    30.04R
$$

AZZ009>014-017-300600-
NORTHEAST ARIZONA

CITY           SKY/WX    TMP DP  RH WIND       PRES   REMARKS
WINSLOW        NOT AVBL
SAINT JOHNS    CLOUDY    70  58  65 S8        30.21F
WINDOW ROCK    MOCLDY    71  50  47 SW9       30.30R
SHOW LOW       CLOUDY    66  46  48 E3        30.29R
$$

AZZ023-300600-
GREATER PHOENIX AREA

CITY           SKY/WX    TMP DP  RH WIND       PRES   REMARKS
PHOENIX        CLOUDY    98  59  27 NW14      29.81R
DEER VALLEY    CLOUDY    94  58  29 N6        29.85R
SCOTTSDALE     CLOUDY    96  58  27 N5        29.87R
MESA-GATEWAY   MOCLDY    93  61  33 SE7       29.86R
$$

AZZ027-028-300600-
SOUTHWEST MARICOPA COUNTY AND PINAL COUNTY

CITY           SKY/WX    TMP DP  RH WIND       PRES   REMARKS
CASA GRANDE    CLOUDY    91  61  35 S7        29.86R
$$

AZZ503-504-507>509-300600-
SOUTHEAST ARIZONA

CITY           SKY/WX    TMP DP  RH WIND       PRES   REMARKS
TUCSON         MOCLDY    84  62  47 S7        30.00R
NOGALES        PTCLDY    73  59  61 CALM      30.09R
SAFFORD        MOCLDY    83  59  44 NW3       29.96R
$$

AZZ020-021-025-026-031-300600-
SOUTHWEST ARIZONA

CITY           SKY/WX    TMP DP  RH WIND       PRES   REMARKS
YUMA           MOCLDY    94  67  41 S8        29.80R
$$

CAZ031-033-041-043-047-048-061-300600-
SOUTHERN CALIFORNIA

CITY           SKY/WX    TMP DP  RH WIND       PRES   REMARKS
DOWNTOWN L.A.  CLEAR     70  57  63 CALM      29.89R
L.A. AIRPORT   PTCLDY    68  58  70 W7        29.91R
SAN DIEGO      PTCLDY    69  62  78 CALM      29.93R
BURBANK        CLEAR     77  57  50 E6        29.90R
ONTARIO        PTCLDY    77  57  50 W6        29.91R
RIVERSIDE      CLEAR     78  58  49 W5        29.92R
PALM SPRINGS   CLEAR    101  54  20 NW8       29.80R
EL CENTRO NAS  PTCLDY    94  64  37 S9        29.77R
IMPERIAL       CLEAR     97  64  33 SE9       29.75R
BLYTHE         MOCLDY   102  61  25 SW10      29.77R HX 103
$$

NVZ020-UTZ003-300600-
SOUTHERN NEVADA-UTAH

CITY           SKY/WX    TMP DP  RH WIND       PRES   REMARKS
LAS VEGAS      NOT AVBL
SALT LAKE CITY MOCLDY    91  50  24 SE10      30.01R
$$

NMZ009-TXZ055-300600-
NEW MEXICO-WEST TEXAS

CITY           SKY/WX    TMP DP  RH WIND       PRES   REMARKS
ALBUQUERQUE    MOCLDY    76  48  37 E20G29    30.21R
EL PASO        MOCLDY    85  52  32 E23G29    30.08R
$$


........................KEY........................
SKY/WX - SKY CONDITION/WEATHER
TMP    - TEMPERATURE IN FAHRENHEIT
DP     - DEW POINT IN FAHRENHEIT
RH     - RELATIVE HUMIDITY IN PERCENT
WIND   - DIRECTION AND SPEED IN MILES PER HOUR (MPH)
VRB    - VARIABLE WIND DIRECTION
PRES   - MEAN SEA LEVEL PRESSURE IN INCHES OF MERCURY
         F - FALLING PRESSURE   R - RISING PRESSURE
         S - STEADY PRESSURE
VSB    - VISIBILITY IN MILES
HX     - HEAT INDEX IN FAHRENHEIT
WCI    - WIND CHILL INDEX IN FAHRENHEIT
TC     - TEMPERATURE IN CELSIUS WHICH IS ALSO KNOWN AS
         TEMPERATURE IN CENTIGRADE
AFB    - AIR FORCE BASE
         LUKE AFB IS LUKE AIR FORCE BASE
         DAVIS-MONTHAN IS DAVIS-MONTHAN AIR FORCE BASE
NAS    - NAVAL AIR STATION
         EL CENTRO NAS IS EL CENTRO NAVAL AIR STATION
N/A    - NOT AVAILABLE




USA.gov is the U.S. government's official web portal to all federal, state and local government web resources and services.